Flag for U.S.A. Weather past 2 weeks in Bakersfield, California, U.S.A.

Now
86 °F

Sunny.


Feels Like: 84 °F
Forecast: 68 / 94 °F
Wind: 7 mph from North

Location: Meadows Field

Current Time: Sep 23, 2014 at 1:44:51 PM

Latest Report: Sep 23, 2014 at 12:54 PM


Visibility: 10 mi

Pressure: 29.91 "Hg

Humidity: 35%

Dew point: 55 °F

Location of BakersfieldLocation

Historic Weather in Bakersfield — Graph

°F

Bakersfield temperature yesterday

Maximum temperature yesterday: 89 °F (at 3:54 PM)
Minimum temperature yesterday: 67 °F (at 5:54 AM)
Average temperature yesterday: 78 °F

Past Weeks' High & Low Weather Summary

 TemperatureHumidityPressure
High105 °F (Sep 13, 3:54 PM)66% (Sep 22, 5:54 AM)29.99 "Hg (Sep 22, 5:54 AM)
Low66 °F (Sep 10, 5:54 AM)10% (Sep 12, 2:54 PM)29.67 "Hg (Sep 17, 4:54 PM)
Average83 °F32%29.82 "Hg
* Reported Sep 8 12:54 PM — Sep 23 12:54 PM, Bakersfield, Weather by CustomWeather, © 2014

Note: Actual official high and low records may vary slightly from our data, if they occured in-between our weather recording intervals... More about our weather records

Advertising

Bakersfield weather history for previous 24 hours

 ConditionsComfort  
Time TempWeatherWind HumidityBarometerVisibility
12:54 PM
Sep 23
86 °FSunny.7 mph35%29.91 "Hg10 mi
11:54 AM84 °FSunny.3 mph36%29.93 "Hg10 mi
10:54 AM80 °FSunny.No wind41%29.96 "Hg8 mi
9:54 AM77 °FSunny.6 mph45%29.97 "Hg9 mi
8:54 AM74 °FSunny.6 mph48%29.97 "Hg10 mi
7:54 AM71 °FSunny.No wind55%29.96 "Hg10 mi
6:54 AM68 °FClear.No wind59%29.94 "Hg10 mi
5:54 AM70 °FClear.No wind51%29.92 "Hg10 mi
4:54 AM72 °FClear.No wind52%29.91 "Hg10 mi
3:54 AM70 °FClear.No wind51%29.91 "Hg10 mi
2:54 AM73 °FClear.No wind46%29.91 "Hg10 mi
1:54 AM74 °FClear.No wind46%29.92 "Hg10 mi
12:54 AM78 °FClear.5 mph45%29.92 "Hg10 mi
11:54 PM
Sep 22
78 °FClear.No wind45%29.92 "Hg10 mi
10:54 PM78 °FClear.5 mph40%29.92 "Hg10 mi
9:54 PM82 °FClear.5 mph40%29.91 "Hg10 mi
8:54 PM81 °FClear.5 mph39%29.90 "Hg10 mi
7:54 PM82 °FClear.5 mph40%29.89 "Hg10 mi
6:54 PM86 °FSunny.7 mph33%29.87 "Hg10 mi
5:54 PM88 °FSunny.8 mph31%29.86 "Hg10 mi
4:54 PM89 °FSunny.10 mph30%29.87 "Hg10 mi
3:54 PM89 °FSunny.8 mph30%29.88 "Hg10 mi
2:54 PM87 °FSunny.6 mph33%29.90 "Hg10 mi
1:54 PM86 °FSunny.7 mph35%29.92 "Hg10 mi
Weather by CustomWeather, © 2014

See weather overviewHow to use our weather pages